Regional Weather Roundup
Issued by NWS

Home | Current Version | Previous Version | Graphics & Text | Print | Product List | Glossary On
Versions: 1 2 3 4 5 6 7 8 9 10 11 12 13 14 15 16 17 18 19 20 21 22 23 24 25 26 27 28 29 30 31 32 33 34 35 36 37 38 39 40 41 42 43 44 45 46 47 48 49 50
000
ASUS43 KDTX 271901
RWRMI
MICHIGAN HOURLY REGIONAL WEATHER ROUNDUP
NATIONAL WEATHER SERVICE DETROIT/PONTIAC MI
300 PM EDT SAT AUG 27 2016

NOTE: "FAIR" INDICATES FEW OR NO CLOUDS BELOW 12,000 FEET WITH NO
SIGNIFICANT WEATHER AND/OR OBSTRUCTION TO VISIBILITY.

MIZ047>049-052>055-059>063-066>070-074>076-081>083-272000-
SOUTHEAST LOWER MICHIGAN

CITY           SKY/WX    TMP DP  RH WIND       PRES   REMARKS
ADRIAN         LGT RAIN  70  70 100 SE5       30.13R
ALMA           LGT RAIN  70  69  96 SE6       30.09F
ANN ARBOR      TSTM      71  71 100 MISG      30.12F FOG
CARO           LGT RAIN  70  69  96 E7        30.12F
DETROIT CITY   CLOUDY    81  67  62 E6        30.10S
DETROIT        TSTM      72  70  93 NW13      30.15R VSB 1/4
FLINT          LGT RAIN  72  68  87 E10       30.11F
GROSSE ILE     CLOUDY    79  69  71 CALM      30.09R
HILLSDALE      CLOUDY    74  69  86 E3        30.10F
HOWELL         LGT RAIN  70  69  98 CALM      30.12F

CITY           SKY/WX    TMP DP  RH WIND       PRES   REMARKS
JACKSON        CLOUDY    71  70  96 E7        30.10F
LAMBERTVILLE   HVY RAIN  71  69  92 W3G17     30.15R
LANSING        LGT RAIN  69  66  90 E12       30.08F
LAPEER         LGT RAIN  71  70  96 CALM      30.14F
MASON          PTSUNNY   68  68 100 E8G21     30.09F FOG
MONROE         HVY RAIN  72  71  98 W7G20     30.16R
MT. CLEMENS    PTSUNNY   78  68  72 E5        30.09F THUNDER
PONTIAC        RAIN      71  69  93 N3        30.14F FOG
PORT HURON     CLOUDY    79  66  65 SE3       30.13R
TRI CITIES     LGT RAIN  70  68  93 SE10      30.11F
MIDLAND        CLOUDY    71  67  86 SE10      30.10F
TROY           HVY RAIN  72  69  90 NW3       30.18R
SAGINAW HB     LGT RAIN  70  68  94 E9        30.10F
$$
MIZ043>046-050>051-056>058-064>065-071>073-077>080-272000-
SOUTHWEST LOWER MICHIGAN

CITY           SKY/WX    TMP DP  RH WIND       PRES   REMARKS
BATTLE CREEK   CLOUDY    70  70 100 SE7       30.08F
BENTON HARBOR  MOSUNNY   81  71  71 S8        30.05S
BIG RAPIDS     CLOUDY    73  67  83 SE7       30.08F
COLDWATER      CLOUDY    73  72  95 SE8       30.09F
FREMONT        CLOUDY    73  67  83 SE7       30.07S
HOLLAND        MOSUNNY   78  71  79 S9        30.06F
GRAND RAPIDS   CLOUDY    72  65  78 SE6       30.07F
IONIA          CLOUDY    68  65  90 E7        30.07F
KALAMAZOO      PTSUNNY   75  69  81 S9        30.07F
LUDINGTON      CLOUDY    71  68  88 S5        30.05F
MARSHALL       CLOUDY    72  72 100 SE9       30.08F
MOUNT PLEASANT LGT RAIN  73  68  83 SE6       30.09F
MUSKEGON       CLOUDY    77  70  79 SE8       30.06R
SOUTH HAVEN    MOSUNNY   80  73  78 S6        30.05F
$$
MIZ016>042-272000-
NORTHERN LOWER MICHIGAN

CITY           SKY/WX    TMP DP  RH WIND       PRES   REMARKS
ALPENA         LGT RAIN  68  61  78 E7        30.15F
BEAVER ISLAND  CLOUDY    64  63  96 CALM      30.10F
BELLAIRE       CLOUDY    68  63  83 E3        30.08F
CADILLAC       CLOUDY    69  64  84 SE9       30.09F
CHARLEVOIX     CLOUDY    66  62  88 E10       30.11F
FRANKFORT      CLOUDY    68  64  86 SE6       30.05F
GAYLORD        LGT RAIN  67  60  78 SE9       30.12F
GRAYLING       CLOUDY    67  64  90 E6        30.12F
HARBOR SPRINGS CLOUDY    64  63  94 E6        30.11F
HOUGHTON LAKE  CLOUDY    68  64  87 SE8       30.12F
MANISTEE       CLOUDY    71  67  87 VRB7      30.05F
OSCODA         DRIZZLE   68  64  87 E6        30.13F
PELLSTON       LGT RAIN  65  61  87 E6        30.12F
ROGERS CITY    RAIN      67  63  87 S3        30.15F
TRAVERSE CITY  CLOUDY    70  64  81 VRB6      30.06F
$$
MIZ007>008-015-272000-
EASTERN UPPER MICHIGAN

CITY           SKY/WX    TMP DP  RH WIND       PRES   REMARKS
KINROSS        LGT RAIN  64  62  93 E8        30.13F
MACKINAC ISLAN CLOUDY    64  64 100 E7        30.12F
NEWBERRY       CLOUDY    63  62  97 E5        30.12F
S. S. MARIE    LGT RAIN  65  62  90 VRB3      30.13F
$$
MIZ004>006-011>014-085-272000-
CENTRAL UPPER MICHIGAN

CITY           SKY/WX    TMP DP  RH WIND       PRES   REMARKS
MANISTIQUE     DRIZZLE   64  62  92 SE6       30.10S
ESCANABA       CLOUDY    66  60  81 SE8       30.09F
MENOMINEE      CLOUDY   N/A N/A N/A E7        30.08F
SAWYER-GWINN   PTSUNNY   66  59  77 S10       30.10S
$$
MIZ001>003-009>011-084-272000-
WESTERN UPPER MICHIGAN

CITY           SKY/WX    TMP DP  RH WIND       PRES   REMARKS
IRON MOUNTAIN  LGT RAIN  63  59  87 SE8       30.08S FOG
HOUGHTON       CLOUDY    68  56  65 E9        30.07F
IRONWOOD       CLOUDY    69  53  56 SE5       30.07R
$$

ABBREVIATIONS USED IN REMARKS
   TC - TEMPERATURE IN CELSIUS
  WCI - WIND CHILL INDEX
   HX - HEAT INDEX
  VSB - VISIBILITY





USA.gov is the U.S. government's official web portal to all federal, state and local government web resources and services.